Time,TemperatureF,DewpointF,PressureIn,WindDirection,WindDirectionDegrees,WindSpeedMPH,WindSpeedGustMPH,Humidity,HourlyPrecipIn,Conditions,Clouds,dailyrainin,SoftwareType,DateUTC
2013-03-29 00:01:00,31.8,22.5,30.12,WNW,294,2.7,9.4,68,0.00,,---,0.00,VWS V14.01,2013-03-29 04:01:00,
2013-03-29 00:06:00,31.8,23.2,30.12,NW,311,0.0,5.4,70,0.00,,---,0.00,VWS V14.01,2013-03-29 04:06:00,
2013-03-29 00:11:00,31.5,22.8,30.12,NW,312,0.0,0.0,70,0.00,,---,0.00,VWS V14.01,2013-03-29 04:11:00,
2013-03-29 00:16:00,31.3,23.0,30.12,NW,319,0.0,4.0,71,0.00,,---,0.00,VWS V14.01,2013-03-29 04:16:00,
2013-03-29 00:21:00,31.1,22.8,30.12,NW,319,0.0,4.5,71,0.00,,---,0.00,VWS V14.01,2013-03-29 04:21:00,
2013-03-29 00:26:00,31.1,22.8,30.12,NW,319,0.0,0.0,71,0.00,,---,0.00,VWS V14.01,2013-03-29 04:26:00,
2013-03-29 00:31:00,31.1,22.8,30.12,NW,319,0.0,0.0,71,0.00,,---,0.00,VWS V14.01,2013-03-29 04:31:00,
2013-03-29 00:41:00,31.3,23.0,30.12,SSW,198,0.0,1.3,71,0.00,,---,0.00,VWS V14.01,2013-03-29 04:41:00,
2013-03-29 00:46:00,31.3,23.0,30.12,SSW,200,0.0,2.7,71,0.00,,---,0.00,VWS V14.01,2013-03-29 04:46:00,
2013-03-29 01:01:00,31.1,22.8,30.12,NW,311,5.4,5.4,71,0.00,,---,0.00,VWS V14.01,2013-03-29 05:01:00,
2013-03-29 01:06:00,31.1,22.8,30.12,WNW,283,0.0,7.2,71,0.00,,---,0.00,VWS V14.01,2013-03-29 05:06:00,
2013-03-29 01:11:00,31.1,22.8,30.12,NNW,332,5.4,7.2,71,0.00,,---,0.00,VWS V14.01,2013-03-29 05:11:00,
2013-03-29 01:21:00,31.1,22.8,30.12,WSW,254,0.0,4.9,71,0.00,,---,0.00,VWS V14.01,2013-03-29 05:21:00,
2013-03-29 01:31:00,31.1,22.8,30.12,SW,229,0.4,4.5,71,0.00,,---,0.00,VWS V14.01,2013-03-29 05:31:00,
2013-03-29 01:36:00,31.1,22.8,30.12,SW,214,0.0,3.1,71,0.00,,---,0.00,VWS V14.01,2013-03-29 05:36:00,
2013-03-29 01:46:00,31.1,22.8,30.12,NW,311,8.5,8.5,71,0.00,,---,0.00,VWS V14.01,2013-03-29 05:46:00,
2013-03-29 01:56:00,31.3,23.0,30.12,WNW,285,3.6,9.4,71,0.00,,---,0.00,VWS V14.01,2013-03-29 05:56:00,
2013-03-29 02:01:00,31.3,23.0,30.12,WNW,295,0.0,6.3,71,0.00,,---,0.00,VWS V14.01,2013-03-29 06:01:00,
2013-03-29 02:11:00,31.5,22.8,30.12,NW,309,5.8,10.7,70,0.00,,---,0.00,VWS V14.01,2013-03-29 06:11:00,
2013-03-29 02:16:00,31.5,22.1,30.12,NW,307,7.2,8.1,68,0.00,,---,0.00,VWS V14.01,2013-03-29 06:16:00,
2013-03-29 02:21:00,31.5,22.8,30.12,WNW,302,3.1,7.2,70,0.00,,---,0.00,VWS V14.01,2013-03-29 06:21:00,
2013-03-29 02:31:00,31.3,22.0,30.09,NW,307,4.5,8.5,68,0.00,,---,0.00,VWS V14.01,2013-03-29 06:31:00,
2013-03-29 02:36:00,31.3,22.6,30.09,NW,314,8.1,8.9,70,0.00,,---,0.00,VWS V14.01,2013-03-29 06:36:00,
2013-03-29 02:41:00,31.3,22.6,30.09,NW,316,7.2,9.4,70,0.00,,---,0.00,VWS V14.01,2013-03-29 06:41:00,
2013-03-29 02:46:00,31.1,22.5,30.09,WNW,283,6.3,8.9,70,0.00,,---,0.00,VWS V14.01,2013-03-29 06:46:00,
2013-03-29 02:51:00,31.3,22.6,30.09,NW,318,9.4,9.4,70,0.00,,---,0.00,VWS V14.01,2013-03-29 06:51:00,
2013-03-29 03:01:00,31.3,22.6,30.09,West,260,0.0,10.3,70,0.00,,---,0.00,VWS V14.01,2013-03-29 07:01:00,
2013-03-29 03:06:00,31.1,22.5,30.09,West,280,5.8,9.4,70,0.00,,---,0.00,VWS V14.01,2013-03-29 07:06:00,
2013-03-29 03:11:00,31.3,22.0,30.09,WNW,288,4.0,9.4,68,0.00,,---,0.00,VWS V14.01,2013-03-29 07:11:00,
2013-03-29 03:16:00,31.3,22.0,30.09,WNW,301,4.0,8.5,68,0.00,,---,0.00,VWS V14.01,2013-03-29 07:16:00,
2013-03-29 03:26:00,31.3,22.0,30.09,NW,315,13.0,13.4,68,0.00,,---,0.00,VWS V14.01,2013-03-29 07:26:00,
2013-03-29 03:36:00,31.3,22.0,30.09,WNW,295,6.3,13.0,68,0.00,,---,0.00,VWS V14.01,2013-03-29 07:36:00,
2013-03-29 03:46:00,31.6,21.2,30.09,NW,305,7.2,11.6,65,0.00,,---,0.00,VWS V14.01,2013-03-29 07:46:00,
2013-03-29 03:51:00,31.6,21.2,30.09,NW,308,6.3,11.6,65,0.00,,---,0.00,VWS V14.01,2013-03-29 07:51:00,
2013-03-29 04:01:00,31.5,22.1,30.09,WNW,290,8.5,9.8,68,0.00,,---,0.00,VWS V14.01,2013-03-29 08:01:00,
2013-03-29 04:11:00,31.3,22.0,30.09,WNW,294,7.6,9.8,68,0.00,,---,0.00,VWS V14.01,2013-03-29 08:11:00,
2013-03-29 04:16:00,31.1,22.5,30.09,West,271,6.7,10.3,70,0.00,,---,0.00,VWS V14.01,2013-03-29 08:16:00,
2013-03-29 04:26:00,31.1,22.8,30.09,West,281,6.7,9.8,71,0.00,,---,0.00,VWS V14.01,2013-03-29 08:26:00,
2013-03-29 04:36:00,30.9,22.6,30.09,WNW,284,8.1,14.3,71,0.00,,---,0.00,VWS V14.01,2013-03-29 08:36:00,
2013-03-29 04:41:00,30.9,22.6,30.09,WNW,283,4.5,11.2,71,0.00,,---,0.00,VWS V14.01,2013-03-29 08:41:00,
2013-03-29 04:56:00,30.7,22.8,30.09,West,274,11.2,11.2,72,0.00,,---,0.00,VWS V14.01,2013-03-29 08:56:00,
2013-03-29 05:01:00,30.7,22.8,30.09,WNW,298,4.0,11.2,72,0.00,,---,0.00,VWS V14.01,2013-03-29 09:01:00,
2013-03-29 05:06:00,30.7,22.8,30.09,West,280,4.0,10.7,72,0.00,,---,0.00,VWS V14.01,2013-03-29 09:06:00,
2013-03-29 05:16:00,30.6,22.6,30.09,WNW,292,0.0,6.7,72,0.00,,---,0.00,VWS V14.01,2013-03-29 09:16:00,
2013-03-29 05:26:00,30.2,22.6,30.09,West,280,0.0,4.5,73,0.00,,---,0.00,VWS V14.01,2013-03-29 09:26:00,
2013-03-29 05:36:00,30.2,22.6,30.09,SW,226,2.7,4.0,73,0.00,,---,0.00,VWS V14.01,2013-03-29 09:36:00,
2013-03-29 05:41:00,30.0,22.8,30.09,SW,215,5.8,8.5,74,0.00,,---,0.00,VWS V14.01,2013-03-29 09:41:00,
2013-03-29 05:46:00,30.0,22.8,30.09,SSW,212,2.7,6.7,74,0.00,,---,0.00,VWS V14.01,2013-03-29 09:46:00,
2013-03-29 05:51:00,29.8,22.6,30.09,SSW,207,1.8,4.5,74,0.00,,---,0.00,VWS V14.01,2013-03-29 09:51:00,
2013-03-29 06:01:00,29.8,22.6,30.09,SSW,208,4.0,7.2,74,0.00,,---,0.00,VWS V14.01,2013-03-29 10:01:00,
2013-03-29 06:11:00,29.8,22.9,30.09,SW,215,3.1,6.7,75,0.00,,---,0.00,VWS V14.01,2013-03-29 10:11:00,
2013-03-29 06:16:00,29.8,22.9,30.09,SW,216,4.5,6.3,75,0.00,,---,0.00,VWS V14.01,2013-03-29 10:16:00,
2013-03-29 06:26:00,29.8,22.9,30.09,SSW,204,4.9,6.7,75,0.00,,---,0.00,VWS V14.01,2013-03-29 10:26:00,
2013-03-29 06:36:00,29.8,22.9,30.09,SW,221,5.8,7.2,75,0.00,,---,0.00,VWS V14.01,2013-03-29 10:36:00,
2013-03-29 06:46:00,29.7,23.0,30.09,SW,223,5.8,8.5,76,0.00,,---,0.00,VWS V14.01,2013-03-29 10:46:00,
2013-03-29 06:56:00,29.7,23.4,30.09,SW,219,8.1,9.4,77,0.00,,---,0.00,VWS V14.01,2013-03-29 10:56:00,
2013-03-29 07:01:00,29.7,23.4,30.12,SW,218,4.9,8.1,77,0.00,,---,0.00,VWS V14.01,2013-03-29 11:01:00,
2013-03-29 07:06:00,29.7,23.4,30.12,SSW,202,2.2,6.7,77,0.00,,---,0.00,VWS V14.01,2013-03-29 11:06:00,
2013-03-29 07:16:00,29.5,23.5,30.12,SE,142,4.9,5.8,78,0.00,,---,0.00,VWS V14.01,2013-03-29 11:16:00,
2013-03-29 07:26:00,29.7,23.6,30.12,South,173,1.3,5.4,78,0.00,,---,0.00,VWS V14.01,2013-03-29 11:26:00,
2013-03-29 07:31:00,29.8,23.5,30.12,South,173,0.0,1.3,77,0.00,,---,0.00,VWS V14.01,2013-03-29 11:31:00,
2013-03-29 07:41:00,29.8,23.5,30.12,NW,304,0.0,4.9,77,0.00,,---,0.00,VWS V14.01,2013-03-29 11:41:00,
2013-03-29 07:51:00,30.2,23.6,30.12,WNW,290,0.0,4.9,76,0.00,,---,0.00,VWS V14.01,2013-03-29 11:51:00,
2013-03-29 07:56:00,30.2,23.6,30.12,WNW,294,3.1,6.3,76,0.00,,---,0.00,VWS V14.01,2013-03-29 11:56:00,
2013-03-29 08:01:00,30.4,23.7,30.12,WNW,302,0.0,6.3,76,0.00,,---,0.00,VWS V14.01,2013-03-29 12:01:00,
2013-03-29 08:06:00,30.6,23.6,30.12,NW,305,0.0,4.5,75,0.00,,---,0.00,VWS V14.01,2013-03-29 12:06:00,
2013-03-29 08:21:00,30.4,23.4,30.12,WNW,283,2.2,8.1,75,0.00,,---,0.00,VWS V14.01,2013-03-29 12:21:00,
2013-03-29 08:36:00,30.6,23.9,30.12,West,263,4.5,5.4,76,0.00,,---,0.00,VWS V14.01,2013-03-29 12:36:00,
2013-03-29 08:46:00,30.4,23.7,30.12,WNW,298,4.0,7.6,76,0.00,,---,0.00,VWS V14.01,2013-03-29 12:46:00,
2013-03-29 08:51:00,30.2,23.6,30.12,NW,307,6.3,7.6,76,0.00,,---,0.00,VWS V14.01,2013-03-29 12:51:00,
2013-03-29 08:56:00,30.2,23.9,30.12,WNW,292,3.1,6.3,77,0.00,,---,0.00,VWS V14.01,2013-03-29 12:56:00,
2013-03-29 09:11:00,29.8,24.7,30.12,West,264,5.4,8.1,81,0.00,,---,0.00,VWS V14.01,2013-03-29 13:11:00,
2013-03-29 09:21:00,29.5,25.0,30.12,WNW,295,0.0,6.3,83,0.00,,---,0.00,VWS V14.01,2013-03-29 13:21:00,
2013-03-29 09:31:00,29.5,25.2,30.12,NW,315,4.5,6.3,84,0.00,,---,0.00,VWS V14.01,2013-03-29 13:31:00,
2013-03-29 09:41:00,29.7,25.4,30.12,WNW,292,3.6,4.5,84,0.00,,---,0.00,VWS V14.01,2013-03-29 13:41:00,
2013-03-29 09:51:00,30.0,25.8,30.12,West,259,0.0,4.0,84,0.00,,---,0.00,VWS V14.01,2013-03-29 13:51:00,
2013-03-29 10:16:00,31.3,25.8,30.12,West,261,2.2,6.7,80,0.00,,---,0.00,VWS V14.01,2013-03-29 14:16:00,
2013-03-29 10:21:00,31.6,25.9,30.12,WSW,257,0.0,5.8,79,0.00,,---,0.00,VWS V14.01,2013-03-29 14:21:00,
2013-03-29 10:36:00,31.3,23.6,30.12,NW,309,8.9,12.1,73,0.00,,---,0.00,VWS V14.01,2013-03-29 14:36:00,
2013-03-29 10:41:00,31.3,24.0,30.12,West,280,6.3,10.7,74,0.00,,---,0.00,VWS V14.01,2013-03-29 14:41:00,
2013-03-29 10:56:00,31.6,24.0,30.12,WNW,285,5.4,8.5,73,0.00,,---,0.00,VWS V14.01,2013-03-29 14:56:00,
2013-03-29 11:11:00,32.5,24.9,30.12,NW,318,6.3,9.4,73,0.00,,---,0.00,VWS V14.01,2013-03-29 15:11:00,
2013-03-29 11:16:00,32.7,25.0,30.12,NW,305,9.8,11.6,73,0.00,,---,0.00,VWS V14.01,2013-03-29 15:16:00,
2013-03-29 11:21:00,32.5,24.9,30.12,WNW,283,10.3,11.2,73,0.00,,---,0.00,VWS V14.01,2013-03-29 15:21:00,
2013-03-29 11:31:00,33.1,24.7,30.12,WNW,295,4.9,9.8,71,0.00,,---,0.00,VWS V14.01,2013-03-29 15:31:00,
2013-03-29 11:41:00,33.4,25.1,30.12,WNW,290,6.7,10.7,71,0.00,,---,0.00,VWS V14.01,2013-03-29 15:41:00,
2013-03-29 11:51:00,33.8,25.4,30.12,NW,308,5.8,9.4,71,0.00,,---,0.00,VWS V14.01,2013-03-29 15:51:00,
2013-03-29 12:01:00,34.3,25.6,30.09,NW,322,8.1,13.4,70,0.00,,---,0.00,VWS V14.01,2013-03-29 16:01:00,
2013-03-29 12:06:00,35.1,25.2,30.09,West,273,4.9,11.6,67,0.00,,---,0.00,VWS V14.01,2013-03-29 16:06:00,
2013-03-29 12:11:00,34.9,25.8,30.09,WNW,301,13.0,13.0,69,0.00,,---,0.00,VWS V14.01,2013-03-29 16:11:00,
2013-03-29 12:36:00,35.2,25.4,30.09,WSW,243,8.5,8.5,67,0.00,,---,0.00,VWS V14.01,2013-03-29 16:36:00,
2013-03-29 12:41:00,34.9,24.0,30.09,West,281,5.4,11.6,64,0.00,,---,0.00,VWS V14.01,2013-03-29 16:41:00,
2013-03-29 12:56:00,35.1,25.2,30.09,NW,309,2.2,7.2,67,0.00,,---,0.00,VWS V14.01,2013-03-29 16:56:00,
2013-03-29 13:21:00,34.7,23.8,30.09,WNW,285,3.1,9.8,64,0.00,,---,0.00,VWS V14.01,2013-03-29 17:21:00,
2013-03-29 13:51:00,34.7,23.8,30.09,NW,308,5.4,12.1,64,0.00,,---,0.00,VWS V14.01,2013-03-29 17:51:00,
2013-03-29 14:06:00,34.2,24.4,30.09,WNW,298,8.5,9.8,67,0.00,,---,0.00,VWS V14.01,2013-03-29 18:06:00,
2013-03-29 14:26:00,34.0,25.2,30.06,WNW,300,6.3,8.5,70,0.00,,---,0.00,VWS V14.01,2013-03-29 18:26:00,
2013-03-29 14:31:00,34.5,26.1,30.06,NW,314,3.6,6.7,71,0.00,,---,0.00,VWS V14.01,2013-03-29 18:31:00,
2013-03-29 14:41:00,34.7,24.9,30.06,NW,309,4.5,10.3,67,0.00,,---,0.00,VWS V14.01,2013-03-29 18:41:00,
2013-03-29 14:51:00,34.5,24.7,30.06,West,281,4.5,7.2,67,0.00,,---,0.00,VWS V14.01,2013-03-29 18:51:00,
2013-03-29 15:11:00,34.9,24.0,30.06,NW,315,8.1,8.9,64,0.00,,---,0.00,VWS V14.01,2013-03-29 19:11:00,
2013-03-29 15:21:00,35.6,24.6,30.06,NW,316,8.1,10.7,64,0.00,,---,0.00,VWS V14.01,2013-03-29 19:21:00,
2013-03-29 15:36:00,35.8,24.8,30.06,North,349,6.3,9.4,64,0.00,,---,0.00,VWS V14.01,2013-03-29 19:36:00,
2013-03-29 15:46:00,37.2,26.2,30.06,North,359,7.6,9.4,64,0.00,,---,0.00,VWS V14.01,2013-03-29 19:46:00,
2013-03-29 15:56:00,37.9,26.1,30.06,North,359,4.5,7.6,62,0.00,,---,0.00,VWS V14.01,2013-03-29 19:56:00,
2013-03-29 16:01:00,37.9,26.1,30.06,NW,319,0.9,7.6,62,0.00,,---,0.00,VWS V14.01,2013-03-29 20:01:00,
2013-03-29 16:31:00,38.5,26.2,30.06,North,359,0.0,7.6,61,0.00,,---,0.00,VWS V14.01,2013-03-29 20:31:00,
2013-03-29 16:36:00,38.7,25.6,30.06,NNW,345,6.3,8.9,59,0.00,,---,0.00,VWS V14.01,2013-03-29 20:36:00,
2013-03-29 16:46:00,39.2,26.1,30.06,NW,316,9.8,11.2,59,0.00,,---,0.00,VWS V14.01,2013-03-29 20:46:00,
2013-03-29 17:06:00,39.0,25.9,30.06,NNW,328,11.6,13.9,59,0.00,,---,0.00,VWS V14.01,2013-03-29 21:06:00,
2013-03-29 17:36:00,38.7,25.6,30.03,NW,319,10.7,13.0,59,0.00,,---,0.00,VWS V14.01,2013-03-29 21:36:00,
2013-03-29 17:46:00,38.7,25.6,30.06,NNW,332,4.5,13.4,59,0.00,,---,0.00,VWS V14.01,2013-03-29 21:46:00,
2013-03-29 17:51:00,38.5,25.4,30.06,NW,322,6.3,14.8,59,0.00,,---,0.00,VWS V14.01,2013-03-29 21:51:00,
2013-03-29 18:06:00,38.1,25.1,30.06,North,360,8.5,15.7,59,0.00,,---,0.00,VWS V14.01,2013-03-29 22:06:00,
2013-03-29 18:15:00,37.9,24.9,30.06,North,356,5.4,18.8,59,0.00,,---,0.00,VWS V14.01,2013-03-29 22:15:00,
2013-03-29 18:20:00,37.8,24.7,30.06,NNW,347,8.1,12.1,59,0.00,,---,0.00,VWS V14.01,2013-03-29 22:20:00,
2013-03-29 18:25:00,37.6,24.6,30.06,NNW,347,8.1,11.2,59,0.00,,---,0.00,VWS V14.01,2013-03-29 22:25:00,
2013-03-29 18:30:00,37.8,24.7,30.06,North,11,8.1,12.1,59,0.00,,---,0.00,VWS V14.01,2013-03-29 22:30:00,
2013-03-29 18:35:00,37.8,24.7,30.06,North,359,8.9,8.9,59,0.00,,---,0.00,VWS V14.01,2013-03-29 22:35:00,
2013-03-29 18:40:00,37.8,24.7,30.06,North,360,4.5,11.6,59,0.00,,---,0.00,VWS V14.01,2013-03-29 22:40:00,
2013-03-29 18:45:00,37.6,24.6,30.06,NW,316,4.5,9.8,59,0.00,,---,0.00,VWS V14.01,2013-03-29 22:45:00,
2013-03-29 18:55:00,37.2,24.2,30.06,NW,325,13.4,16.6,59,0.00,,---,0.00,VWS V14.01,2013-03-29 22:55:00,
2013-03-29 19:00:00,36.9,23.9,30.06,NNW,345,6.7,14.8,59,0.00,,---,0.00,VWS V14.01,2013-03-29 23:00:00,
2013-03-29 19:10:00,36.7,23.7,30.06,NW,312,6.7,13.4,59,0.00,,---,0.00,VWS V14.01,2013-03-29 23:10:00,
2013-03-29 19:20:00,36.3,23.4,30.06,NW,318,11.6,13.9,59,0.00,,---,0.00,VWS V14.01,2013-03-29 23:20:00,
2013-03-29 19:25:00,36.0,23.0,30.06,NW,323,5.4,11.6,59,0.00,,---,0.00,VWS V14.01,2013-03-29 23:25:00,
2013-03-29 19:35:00,35.6,22.7,30.06,NW,325,4.9,10.3,59,0.00,,---,0.00,VWS V14.01,2013-03-29 23:35:00,
2013-03-29 19:45:00,34.0,21.6,30.06,NNW,338,6.7,7.6,60,0.00,,---,0.00,VWS V14.01,2013-03-29 23:45:00,
2013-03-29 19:50:00,34.2,21.7,30.06,NW,321,8.9,8.9,60,0.00,,---,0.00,VWS V14.01,2013-03-29 23:50:00,
2013-03-29 20:00:00,34.0,21.6,30.06,North,349,4.5,8.9,60,0.00,,---,0.00,VWS V14.01,2013-03-30 00:00:00,
2013-03-29 20:10:00,33.3,20.9,30.06,NNW,339,3.1,7.6,60,0.00,,---,0.00,VWS V14.01,2013-03-30 00:10:00,
2013-03-29 20:15:00,32.0,19.7,30.06,NNW,339,1.8,4.5,60,0.00,,---,0.00,VWS V14.01,2013-03-30 00:15:00,
2013-03-29 20:25:00,29.1,19.2,30.06,NNW,339,3.1,4.0,66,0.00,,---,0.00,VWS V14.01,2013-03-30 00:25:00,
2013-03-29 20:35:00,28.4,20.5,30.06,NNW,339,2.7,4.9,72,0.00,,---,0.00,VWS V14.01,2013-03-30 00:35:00,
2013-03-29 20:40:00,28.6,20.7,30.06,NNW,339,2.7,3.6,72,0.00,,---,0.00,VWS V14.01,2013-03-30 00:40:00,
2013-03-29 20:50:00,28.0,20.2,30.06,NNW,339,0.0,4.0,72,0.00,,---,0.00,VWS V14.01,2013-03-30 00:50:00,
2013-03-29 20:55:00,27.5,20.0,30.06,NNW,339,0.0,2.2,73,0.00,,---,0.00,VWS V14.01,2013-03-30 00:55:00,
2013-03-29 21:05:00,26.8,19.9,30.06,NNW,339,0.0,2.7,75,0.00,,---,0.00,VWS V14.01,2013-03-30 01:05:00,
2013-03-29 21:15:00,26.8,20.2,30.09,NNW,339,0.0,4.5,76,0.00,,---,0.00,VWS V14.01,2013-03-30 01:15:00,
2013-03-29 21:25:00,26.4,19.9,30.09,NNW,339,0.0,0.0,76,0.00,,---,0.00,VWS V14.01,2013-03-30 01:25:00,
2013-03-29 21:30:00,26.2,19.7,30.09,NNW,339,0.0,0.0,76,0.00,,---,0.00,VWS V14.01,2013-03-30 01:30:00,
2013-03-29 21:35:00,25.7,19.5,30.09,NNW,339,0.0,0.0,77,0.00,,---,0.00,VWS V14.01,2013-03-30 01:35:00,
2013-03-29 21:40:00,25.5,19.9,30.09,NNW,339,0.0,0.0,79,0.00,,---,0.00,VWS V14.01,2013-03-30 01:40:00,
2013-03-29 21:50:00,25.3,20.0,30.09,NNW,339,0.0,0.0,80,0.00,,---,0.00,VWS V14.01,2013-03-30 01:50:00,
2013-03-29 21:55:00,25.0,20.0,30.09,NNW,339,0.0,0.0,81,0.00,,---,0.00,VWS V14.01,2013-03-30 01:55:00,
2013-03-29 22:05:00,25.0,20.6,30.09,NNW,339,0.0,0.0,83,0.00,,---,0.00,VWS V14.01,2013-03-30 02:05:00,
2013-03-29 22:15:00,25.2,20.7,30.09,NNW,339,0.0,0.0,83,0.00,,---,0.00,VWS V14.01,2013-03-30 02:15:00,
2013-03-29 22:20:00,25.3,20.9,30.09,NNW,339,0.0,0.4,83,0.00,,---,0.00,VWS V14.01,2013-03-30 02:20:00,
2013-03-29 22:25:00,25.3,20.9,30.09,NNW,339,0.0,0.0,83,0.00,,---,0.00,VWS V14.01,2013-03-30 02:25:00,
2013-03-29 22:30:00,25.2,20.5,30.09,NNW,339,0.0,0.0,82,0.00,,---,0.00,VWS V14.01,2013-03-30 02:30:00,
2013-03-29 22:40:00,23.9,19.2,30.09,NNW,339,0.0,0.0,82,0.00,,---,0.00,VWS V14.01,2013-03-30 02:40:00,
2013-03-29 22:45:00,23.2,18.8,30.09,NNW,339,0.0,0.0,83,0.00,,---,0.00,VWS V14.01,2013-03-30 02:45:00,
2013-03-29 22:50:00,23.2,19.1,30.09,NNW,339,3.6,3.6,84,0.00,,---,0.00,VWS V14.01,2013-03-30 02:50:00,
2013-03-29 22:55:00,23.5,19.7,30.09,NW,316,2.7,3.6,85,0.00,,---,0.00,VWS V14.01,2013-03-30 02:55:00,
2013-03-29 23:05:00,24.4,20.6,30.09,SW,219,3.6,4.5,85,0.00,,---,0.00,VWS V14.01,2013-03-30 03:05:00,
2013-03-29 23:10:00,24.1,20.0,30.09,SW,219,0.0,3.6,84,0.00,,---,0.00,VWS V14.01,2013-03-30 03:10:00,
2013-03-29 23:15:00,23.4,19.2,30.09,SW,219,0.0,0.0,84,0.00,,---,0.00,VWS V14.01,2013-03-30 03:15:00,
2013-03-29 23:20:00,23.2,19.1,30.09,SW,219,0.0,0.0,84,0.00,,---,0.00,VWS V14.01,2013-03-30 03:20:00,
2013-03-29 23:25:00,22.6,18.5,30.09,SW,219,0.0,0.0,84,0.00,,---,0.00,VWS V14.01,2013-03-30 03:25:00,
2013-03-29 23:30:00,22.6,18.5,30.09,SW,219,0.0,0.0,84,0.00,,---,0.00,VWS V14.01,2013-03-30 03:30:00,
2013-03-29 23:40:00,22.5,18.6,30.09,SW,219,0.0,0.0,85,0.00,,---,0.00,VWS V14.01,2013-03-30 03:40:00,
2013-03-29 23:45:00,22.6,19.1,30.09,SW,221,1.8,2.2,86,0.00,,---,0.00,VWS V14.01,2013-03-30 03:45:00,
2013-03-29 23:50:00,23.0,19.5,30.09,WSW,252,3.1,5.4,86,0.00,,---,0.00,VWS V14.01,2013-03-30 03:50:00,